User: anonymous   Login
Location: Columbia
(38.9520°N, 92.3340°W)
Time: 22:23:34
(UTC-05:00)
Language:

SJ-11-01 - Orbit

View from above orbital plane
View from above orbital plane
View from above satellite
View from above satellite

Ground track
Ground track

The orbit data is extracted from the following two-line orbital elements,

1 36088U 09061A   15107.79281658  .00000573  00000-0  13041-3 0  9998
2 36088 098.2453 154.0916 0010673 207.9423 152.1202 14.59558882289184
Epoch (UTC): 17 April 2015 19:01:39
Eccentricity: 0.0010673
inclination: 98.2453°
perigee height: 687 km
apogee height: 702 km
right ascension of ascending node: 154.0916°
argument of perigee: 207.9423°
revolutions per day: 14.59558882
mean anomaly at epoch: 152.1202°
orbit number at epoch: 28918

The dashed part of the orbit path shows where the satellite is in the earth's shadow,  

DLR